Tamworth Airport
YSTW : now visible

Airfield :











YOU CAN JOIN US ON...

 
LOGIN :

Register | Disclaimer

   EN    FR    IT 

 









Legend :    VFR   Marginal VFR   IFR   Intensive IFR   Very Intensive IFR
Visi :
Ceiling :
>= 8 km
>= 3000ft
5 to 8 km
1000 to 3000 ft
1500m to 5 km
500 to 1000 ft
800 to 1500m
200 to 500 ft
< 800m
< 200 ft
Symbols :   Thunderstorms  Fog  Heavy snow  Heavy precipitations  Wind > 20 kt






- Airport Elevation : 1334 ft
- IATA code : TMW


YSTW - Tamworth

CURRENT METAR :
  • 042230Z AUTO 33005KT 9999 // NCD 19/14 Q1010 RF00.0/000.0

EXPIRED METARs :
  • 042200Z AUTO 00000KT 9999 // NCD 18/13 Q1010
  • 042130Z AUTO 11003KT 9999 // NCD 16/12 Q1010 RF00.0/000.0
  • 042100Z AUTO 13003KT 9999 // NCD 14/12 Q1009
  • 042030Z AUTO 14004KT 9999 // NCD 13/12 Q1009 RF00.0/000.0
  • 042000Z AUTO 13005KT 9999 // NCD 11/11 Q1009

TAF TAF YSTW
Valid from the 04 at 18:00 until the 05 at 12:00 UTC


041709Z 0418/0512 VRB03KT CAVOK
FM050000 24009KT CAVOK
FM051000 14010KT CAVOK
YBBB FIR / Oceania



MET'MAP, your aeronautical weather chart ! - Copyright ORBIFLY December 2007 - Disclaimer

ORBIFLY MET'MAP TEAM :

Programming & Development : Alexandra Zaïnal
Concept & original design : Baudouin d'Aumeries
Assistance for programming : Marc-Olivier Méhu
Technical & hardware support : Manuel Goepfert

Contact : metmap@orbifly.com




SOURCES & CREDITS :

   NOAA       Earth
Advisory